• MPC Preparation (Info)

  • MPEC 2009-T32 : 2009 TS

    The following Minor Planet Electronic Circular may be linked-to from your own Web pages, but must not otherwise be redistributed electronically.

    A form allowing access to any MPEC is at the bottom of this page.


    Read MPEC 2009-T31 Read MPEC 2009-T33


    M.P.E.C. 2009-T32                                Issued 2009 Oct. 10, 11:34 UT
    
         The Minor Planet Electronic Circulars contain information on unusual
             minor planets and routine data on comets.  They are published
       on behalf of Commission 20 of the International Astronomical Union by the
              Minor Planet Center, Smithsonian Astrophysical Observatory,
                              Cambridge, MA 02138, U.S.A.
    
                 Prepared using the Tamkin Foundation Computer Network
    
                                  MPC@CFA.HARVARD.EDU
              URL http://www.cfa.harvard.edu/iau/mpc.html  ISSN 1523-6714
    
                                        2009 TS
    
    Observations:
         K09T00S* C2009 10 09.43508 01 12 57.92 +17 59 10.1          18.4 V ET032703
         K09T00S  C2009 10 09.44299 01 13 03.00 +18 03 03.9          18.3 V ET032703
         K09T00S  C2009 10 09.45080 01 13 07.96 +18 06 58.8          19.1 V ET032703
         K09T00S  C2009 10 09.45867 01 13 13.15 +18 10 53.8          18.4 V ET032703
         K09T00S  C2009 10 09.46670 01 13 18.37 +18 14 53.4          18.0 V ET032703
         K09T00S  C2009 10 09.47110 01 13 21.14 +18 17 01.5          17.6 V ET032703
         K09T00S  C2009 10 09.47552 01 13 24.31 +18 19 14.7          18.2 V ET032703
         K09T00S  C2009 10 09.47994 01 13 27.15 +18 21 27.7          19.3 V ET032703
         K09T00S QC2009 10 09.62152301 15 23.27 +19 39 38.0          18.3 V ET032E12
         K09T00S  C2009 10 09.64565 01 15 42.99 +19 46 55.4                 ET032900
         K09T00S  C2009 10 09.64699 01 15 43.83 +19 47 37.0          18.4 V ET032900
         K09T00S  C2009 10 09.64834 01 15 44.70 +19 48 18.8                 ET032900
         K09T00S  C2009 10 10.14377 01 22 18.30 +24 13 51.4                 ET032J95
         K09T00S EC2009 10 10.14535 01 22 19.58 +24 14 44.4                 ET032J95
         K09T00S  C2009 10 10.14903 01 22 22.56 +24 16 45.7                 ET032J95
         K09T00S  C2009 10 10.15030 01 22 23.52 +24 17 28.1          18.3 R ET032J95
         K09T00S  C2009 10 10.19719 01 23 28.98 +24 45 29.3          18.1 V ET032703
         K09T00S  C2009 10 10.19779 01 23 29.54 +24 45 50.0          18.5 V ET032703
         K09T00S  C2009 10 10.19840 01 23 29.98 +24 46 06.7          19.6 V ET032703
         K09T00S  C2009 10 10.19902 01 23 30.37 +24 46 32.1          18.5 V ET032703
         K09T00S  C2009 10 10.29963 01 24 49.51 +25 44 05.0          19.0 R ET032926
         K09T00S  C2009 10 10.30105 01 24 50.65 +25 44 53.5          18.6 R ET032926
         K09T00S  C2009 10 10.30248 01 24 51.77 +25 45 42.3          18.9 R ET032926
         K09T00S  C2009 10 10.39108 01 25 59.30 +26 35 21.8          18.4 R ET032H36
         K09T00S  C2009 10 10.39433 01 26 02.03 +26 37 12.8          18.3 R ET032H36
         K09T00S  C2009 10 10.39759 01 26 04.91 +26 39 02.9          18.4 R ET032H36
    
    Observer details:
    703 Catalina Sky Survey.  Observer R. E. Hill.  Measurers E. C. Beshore,
        A. Boattini, G. J. Garradd, A. R. Gibbs, A. D. Grauer, R. E. Hill,
        R. A. Kowalski, S. M. Larson, R. H. McNaught.  0.68-m Schmidt + CCD.
    900 Moriyama.  Observer Y. Ikari.  0.26-m f/7.0 reflector + CCD.
    926 Tenagra II Observatory.  Observers P. R. Holvorcem, M. Schwartz.  Measurer
        P. R. Holvorcem.  0.81-m f/7 Ritchey-Chretien + CCD.
    E12 Siding Spring Survey.  Observer R. H. McNaught.  0.5-m Uppsala Schmidt
        + CCD.
    H36 Sandlot Observatory, Scranton.  Observer G. Hug.  0.56-m reflector + CCD.
    J95 Great Shefford.  Observer P. Birtwhistle.  0.40-m f/6.0 Schmidt-Cassegrain
        + CCD.
    
    Orbital elements:
    2009 TS                                                  Earth MOID = 0.0240 AU
    Epoch 2010 Jan. 4.0 TT = JDT 2455200.5                  MPC
    M  23.58622              (2000.0)            P               Q
    n   0.39991541     Peri.   34.85645     +0.65282589     -0.75659704
    a   1.8245564      Node    14.50811     +0.65693656     +0.54106111
    e   0.4656095      Incl.    8.52540     +0.37716405     +0.36716998
    P   2.46           H   25.5           G   0.15           U   5
    Residuals in seconds of arc
    091009 703  0.3-  0.4+    091009 900  0.8+  0.0     091010 703 (0.5+  3.1-)
    091009 703  0.1+  1.4-    091009 900  0.4+  0.1-    091010 703  0.9-  1.1+
    091009 703  0.8-  0.7+    091009 900  0.3+  0.3-    091010 926  0.3-  0.7+
    091009 703  0.3+  1.0+    091010 J95  0.8-  1.0-    091010 926  0.0   0.6+
    091009 703  0.2-  0.9+    091010 J95  0.7-  0.3-    091010 926  0.0   0.3+
    091009 703  2.1-  2.4-    091010 J95  0.7-  1.0-    091010 H36  0.5-  0.5+
    091009 703  1.3+  1.3-    091010 J95  1.7-  0.7-    091010 H36  0.9-  0.7+
    091009 703  0.2-  0.4-    091010 703  0.1-  0.9+    091010 H36  0.6+  0.4-
    091009 E12  0.2+  1.0+    091010 703  1.1+  1.1+
    
    Ephemeris:
    2009 TS                  a,e,i = 1.82, 0.47, 9                   q = 0.9750
    Date    TT    R. A. (2000) Decl.     Delta      r     Elong.  Phase     V
    2009 10 06    00 45.28   -03 05.1    0.0415   1.041   171.9     7.8    19.2
    2009 10 07    00 51.35   +01 38.5    0.0375   1.037   176.2     3.6    18.8
    2009 10 08    00 58.84   +07 26.2    0.0339   1.033   178.0     1.9    18.5
    2009 10 09    01 08.27   +14 30.1    0.0307   1.029   171.3     8.4    18.6
    2009 10 10    01 20.43   +22 56.8    0.0282   1.026   163.0    16.5    18.7
    2009 10 11    01 36.60   +32 38.4    0.0265   1.022   153.3    26.1    18.9
    2009 10 12    01 58.82   +43 02.4    0.0258   1.019   142.6    36.5    19.1
    2009 10 13    02 30.53   +53 11.8    0.0261   1.015   131.8    47.1    19.4
    2009 10 14    03 16.98   +61 58.3    0.0274   1.012   121.7    56.9    19.8
    2009 10 15    04 23.88   +68 20.9    0.0296   1.009   113.0    65.5    20.2
    2009 10 16    05 49.05   +71 41.0    0.0324   1.006   105.7    72.6    20.6
    
    Timothy B. Spahr             (C) Copyright 2009 MPC           M.P.E.C. 2009-T32
    

    Read MPEC 2009-T31 Read MPEC 2009-T33


    MPEC number:

    Enter an MPEC number in one of the following forms:

    • 1997-B01 (the full form)
    • J97B01 (the packed version of the full form)
    • B01 (the abbreviated form)